Location: Bulzani
(46.2167°N, 22.6667°E)
Time: 06:46:02
(UTC+00:00)

Daily predictions for brighter satellites

Satellite Brightness Start Highest point End
(mag) Time Altitude Azimuth Time Altitude Azimuth Time Altitude Azimuth
ERS-2 3.2 18:56:47 10° N 19:00:21 50° WNW 19:03:52 10° SSW
Cosmos 1953 2.3 18:56:37 10° N 19:00:42 78° E 19:04:45 10° SSE
Resurs 01 Rocket 1.6 18:56:39 10° SSE 19:01:03 83° ENE 19:05:30 10° NNW
X-37B 2.4 18:59:26 10° S 19:01:10 14° SSE 19:02:53 10° ESE
In-Cosmos 22 4.3 18:56:57 10° SSW 19:02:13 76° WNW 19:07:34 10° N
OPS 8737 4.5 18:59:28 10° SW 19:03:37 85° SE 19:06:48 10° NE
Cosmos 1302 Rocket 4.4 19:01:03 10° S 19:06:01 44° ESE 19:10:58 10° NNE
FALCON 9 DEB 3.7 19:06:23 10° WSW 19:09:26 55° NNW 19:12:29 10° NE
Cosmos 1544 Rocket 3.7 19:06:48 10° N 19:11:14 63° E 19:15:36 10° SSE
SPOT 1/Viking Rocket 3.7 19:07:50 10° SSE 19:12:53 63° ENE 19:17:59 10° N
CZ-2C R/B 4.0 19:08:41 10° NNE 19:13:22 52° E 19:17:59 10° S
ATLAS 2A CENTAUR R/B 4.4 19:02:22 10° SW 19:13:46 19° S 19:19:03 10° SSE
Cosmos 1455 Rocket 3.4 19:10:44 10° NNW 19:15:12 73° W 19:19:38 10° S
Cosmos 1908 3.3 19:11:50 10° NNW 19:15:42 78° W 19:19:31 10° S
Ariane Rocket 4.0 19:12:41 10° S 19:17:33 45° W 19:22:28 10° NNW
FALCON 9 DEB 4.0 19:18:05 10° W 19:21:07 48° NNW 19:24:09 10° NE
FALCON 9 DEB 3.7 19:18:29 10° WSW 19:21:33 55° NNW 19:24:39 10° NE
Cosmos 2123 Rocket 4.2 19:17:27 10° SSE 19:23:35 56° E 19:29:45 10° NNE
Cosmos 968 Rocket 3.7 19:24:04 10° NNW 19:29:08 57° ENE 19:33:46 12° SE
Cosmos 2333 4.4 19:25:35 10° SSW 19:31:20 82° WNW 19:37:05 10° NNE
Cosmos 1025 Rocket 3.1 19:27:03 10° S 19:31:26 84° W 19:35:48 10° N
Cosmos 2219 Rocket 2.2 19:28:51 10° SSW 19:34:31 78° ESE 19:40:13 10° NNE
Cosmos 2228 4.3 19:30:47 10° NNE 19:34:34 27° ENE 19:37:44 13° SE
Cosmos 2061 Rocket 4.1 19:28:44 10° N 19:35:12 75° E 19:41:33 10° SSE
ARIANE 5 R/B 2.8 19:32:53 12° SSE 19:36:58 61° ENE 19:41:26 10° N
ATLAS 3B R/B 2.7 19:30:26 10° SW 19:37:00 86° NW 19:43:49 10° NE
Terra 2.8 19:33:16 12° SE 19:37:11 35° ENE 19:41:29 10° N
Cosmos 2100 Rocket 4.5 19:31:13 10° NNW 19:37:30 64° W 19:43:41 10° S
Uosat 12 SS-18 rocket 4.1 19:34:29 10° SSW 19:38:47 69° ESE 19:43:47 10° NE
BREEZE-M DEB (TANK) 2.4 19:37:29 10° WNW 19:40:50 45° SW 19:42:07 19° SSE
Cosmos 389 Rocket 3.8 19:39:37 10° NNE 19:42:34 26° ENE 19:44:41 15° ESE
SPOT 3 Rocket 4.3 19:37:49 10° S 19:42:51 51° W 19:47:56 10° NNW
Cosmos 1536 Rocket 3.5 19:41:41 10° S 19:46:07 75° E 19:50:33 10° NNE
Cosmos 1992 Rocket 4.4 19:41:18 10° S 19:46:10 42° ESE 19:51:05 10° NE
BREEZE-M DEB (TANK) 4.5 19:32:47 10° SW 19:48:10 41° SSE 19:52:36 10° E
Cosmos 2333 Rocket 2.5 19:42:34 10° SSW 19:48:19 74° WNW 19:54:03 10° NNE
Cosmos 1486 Rocket 4.2 19:43:08 10° NNW 19:48:20 63° ENE 19:52:28 16° SE
Cosmos 1346 Rocket 3.6 19:47:07 16° SSE 19:49:49 34° E 19:53:30 10° NNE
JB-3 4.3 19:46:12 10° NNE 19:50:14 84° ESE 19:54:20 10° SSW
Cosmos 2016 Rocket 4.1 19:44:11 10° N 19:50:19 81° W 19:56:27 10° S
Cosmos 1867 3.6 19:46:29 10° NW 19:52:00 88° WSW 19:56:22 16° SSE
CARTOSAT-1 3.6 19:53:00 14° S 19:56:45 80° WSW 20:01:06 10° NNW
SPOT 5 2.9 19:55:01 15° SSE 19:59:06 77° ENE 20:03:52 10° N
Cosmos 2237 Rocket 2.7 19:55:35 12° S 20:00:17 39° ESE 20:05:27 10° NE
SL-16 R/B 3.9 19:59:15 12° ESE 20:00:54 14° E 20:03:40 10° ENE
Cosmos 2360 Rocket 4.2 19:56:16 10° WSW 20:01:15 31° NW 20:06:15 10° N
SL-4 R/B 1.9 19:57:13 10° SW 20:01:29 77° SSE 20:05:24 10° ENE
Cosmos 1455 3.7 19:59:34 10° NNE 20:02:42 23° ENE 20:04:35 16° ESE
Cosmos 1725 Rocket 4.2 20:00:49 10° NNW 20:06:58 71° W 20:12:52 11° S
Meteor 2-5 Rocket 3.7 20:01:36 10° S 20:07:09 86° WNW 20:12:51 10° N
ERS-1 Rocket 3.0 20:03:45 16° SSE 20:07:47 89° WSW 20:12:52 10° NNW
Cosmos 405 4.2 20:05:39 10° NNW 20:08:51 37° W 20:11:43 12° SSW
Cosmos 1340 4.2 20:09:38 10° SW 20:13:07 35° WNW 20:16:38 10° N
Lacrosse 5 rocket 3.9 20:10:57 10° WNW 20:13:47 21° NNW 20:16:35 10° NNE
Cosmos 1300 3.5 20:11:38 10° NNW 20:15:18 46° W 20:18:17 14° SSW
Geosat 4.0 20:11:46 20° SE 20:15:19 82° ENE 20:20:23 10° NNW
Spot 2 Rocket 4.3 20:16:33 12° S 20:21:00 47° W 20:25:55 10° NNW
ATLAS CENTAUR R/B 3.7 20:18:36 10° WNW 20:21:34 18° WSW 20:24:37 10° SSW
NOSS 0 Rocket 3.9 20:19:38 10° SSW 20:25:50 80° ESE 20:32:07 10° NNE
Meteor 1-24 Rocket 3.8 20:21:37 10° SSW 20:26:59 73° WNW 20:32:34 10° N
Meteor 2-10 Rocket 3.4 20:22:09 10° NNW 20:27:13 82° W 20:30:33 21° S
Cosmos 2278 Rocket 2.3 20:28:54 10° NNW 20:34:35 75° WSW 20:38:06 24° SSE
Cosmos 1726 Rocket 3.6 20:32:16 10° N 20:36:45 74° E 20:39:00 28° SSE
X-37B 0.8 20:34:14 10° WSW 20:37:18 46° SSE 20:37:46 42° SE
Resurs 01 Rocket 4.4 20:37:11 10° W 20:38:09 11° W 20:39:06 10° WNW
COSMOS 2428 3.9 20:35:53 10° SW 20:41:20 43° NW 20:46:49 10° NNE
SJ 16-02 3.1 20:40:55 10° N 20:44:27 23° ENE 20:46:53 15° E
Okean 1-7 Rocket 4.3 20:43:20 28° SE 20:44:56 38° E 20:49:02 10° NNE
Cosmos 2058 Rocket 3.3 20:40:48 10° N 20:45:10 55° ENE 20:47:04 30° SE
Cosmos 1943 Rocket 3.4 20:41:20 10° N 20:46:15 32° NE 20:50:11 15° ESE
Cosmos 1503 Rocket 4.2 20:43:39 10° NNW 20:49:00 70° WSW 20:51:59 27° S
BREEZE-M DEB (TANK) 3.9 20:49:01 10° W 20:52:07 61° N 21:01:01 10° E
ATLAS CENTAUR R/B 3.2 20:49:29 22° S 20:52:23 53° ESE 21:02:48 10° NE
Cosmos 1606 Rocket 4.0 20:49:11 10° NNW 20:53:35 58° W 20:55:55 26° SSW
Cosmos 2034 Rocket 4.4 20:50:20 10° N 20:56:20 50° ENE 20:59:40 26° SE
BREEZE-M DEB (TANK) 2.9 20:56:48 10° W 20:59:39 62° N 21:06:47 10° ENE
Cosmos 1892 Rocket 3.6 20:58:16 28° SSW 21:00:34 84° W 21:05:03 10° N
Cosmos 1980 4.2 21:06:22 10° SW 21:11:57 59° WNW 21:17:36 10° NNE
Cosmos 1441 Rocket 3.1 21:10:53 45° S 21:11:58 79° E 21:15:46 10° NNE
Terra 3.2 21:12:09 17° SW 21:14:57 29° W 21:19:07 10° NW
Meteor 1-21 Rocket 4.2 21:13:04 28° S 21:16:12 85° E 21:22:00 10° NNE
ALOS 2 3.3 21:23:07 30° ESE 21:24:43 44° ENE 21:28:53 10° N
Cosmos 1626 Rocket 3.7 21:24:32 42° SSE 21:25:49 62° E 21:30:12 10° NNE
GEOS 3 Rocket 4.2 21:23:47 20° ESE 21:27:28 55° NE 21:32:40 10° NNW
USA 229 DEB 4.0 21:26:54 31° SSE 21:29:11 42° ESE 21:35:28 10° NE
USA 229 4.0 21:27:03 31° SSE 21:29:18 42° ESE 21:35:34 10° NE
Tsikada Rocket 4.2 21:27:12 32° SSE 21:30:01 58° E 21:36:02 10° NNE
Cosmos 1777 Rocket 4.0 21:25:04 10° NNW 21:30:22 73° WSW 21:32:30 37° S
Cosmos-2242 4.3 21:28:28 10° N 21:32:22 30° ENE 21:33:51 24° ESE
Cosmos 1602 Rocket 3.8 21:34:09 42° SE 21:35:19 56° E 21:39:43 10° NNE
NOSS 3-1 (C) 3.2 21:32:57 31° SSW 21:35:36 68° ESE 21:41:46 10° NE
Cosmos 1455 3.8 21:35:03 10° NNW 21:38:14 26° W 21:39:27 21° WSW
Cosmos 1703 3.8 21:37:37 34° SW 21:39:00 53° WNW 21:42:54 10° N
SL-4 R/B 3.2 21:37:26 10° W 21:41:17 40° NNW 21:44:52 10° ENE
COBE Rocket 3.8 21:39:49 40° SSE 21:41:41 87° ENE 21:46:35 10° NNW
Cosmos 1758 Rocket 4.2 21:42:50 36° ESE 21:43:45 41° E 21:47:53 10° NNE
SL-16 R/B 2.1 21:41:05 29° SSW 21:44:08 89° ESE 21:49:51 10° NNE
Cosmos 2237 Rocket 3.5 21:39:09 10° WSW 21:44:21 37° NW 21:49:34 10° NNE
NOSS 2-3 (E) 3.5 21:46:15 49° S 21:47:11 66° SE 21:51:53 10° NE
NOSS 3-1 (A) 3.5 21:47:22 38° SSE 21:48:57 49° ESE 21:54:51 10° NE
Cosmos 2369 Rocket 2.8 21:46:28 10° NNW 21:52:04 52° ENE 21:55:19 24° SE
USA 215 3.2 21:45:56 10° ENE 21:52:25 62° SE 21:56:37 23° SSW
Lacrosse 5 rocket 4.2 21:51:48 10° NNW 21:53:58 15° N 21:56:07 10° NE
SAR-Lupe-2 4.3 21:50:54 10° NNE 21:54:17 38° E 21:54:18 38° E
Meteor 1-4 Rocket 3.2 21:59:00 10° NNW 22:02:14 38° W 22:02:27 38° WSW
Cosmos 1898 Rocket 4.1 22:02:03 10° NNW 22:07:09 49° ENE 22:09:40 27° SE
Cosmos 1634 Rocket 4.0 22:05:36 10° N 22:11:58 86° E 22:14:49 36° S
Cosmos 1812 Rocket 3.7 22:08:13 10° NNW 22:12:33 63° W 22:13:33 47° SSW
DELTA 2 R/B (1) 4.4 22:17:40 30° SE 22:17:40 30° SE 22:21:05 10° ESE
Lacrosse 4 Rocket 3.7 22:13:52 10° N 22:16:59 20° NE 22:20:02 10° E
Cosmos 2278 Rocket 4.4 22:16:08 10° W 22:17:37 11° W 22:19:07 10° WSW
MTI 3.8 22:15:30 10° NNE 22:18:16 71° NNE 22:18:16 71° NNE
USA 306 3.8 22:22:17 32° ESE 22:22:17 32° ESE 22:25:25 10° ENE
SJ 16-02 2.0 22:19:05 10° NW 22:23:10 39° WSW 22:23:51 37° SW
Cosmos 2297 4.4 22:19:20 10° NW 22:24:35 40° WSW 22:26:13 33° SW
USA 267 3.4 22:19:44 10° ESE 22:26:14 73° NNE 22:32:47 10° NW
NOSS 2-3 (D) 3.9 22:26:26 30° WSW 22:28:22 62° NW 22:33:12 10° NE
Cosmos 468 Rocket 3.9 22:27:29 44° S 22:29:07 72° ESE 22:34:21 10° NNE
Nimbus 7 Rocket 4.4 22:23:48 10° NNE 22:29:54 85° WNW 22:32:43 34° SSW
Cosmos 1943 Rocket 2.6 22:24:55 10° NW 22:30:09 45° WSW 22:31:41 36° SSW
CZ-2D R/B 4.4 22:31:57 10° ENE 22:33:04 11° E 22:34:10 10° E
PSLV R/B 4.0 22:28:57 10° NNE 22:33:16 53° E 22:34:14 44° SE
Cosmos 1408 2.5 22:34:40 70° SE 22:34:56 74° E 22:38:38 10° NNE
Cosmos 1763 Rocket 3.3 22:35:43 44° SSW 22:37:22 83° ESE 22:42:34 10° NNE
Cosmos 1825 Rocket 3.6 22:38:01 50° SSW 22:39:08 76° W 22:43:35 10° N
In-Cosmos 22 Rocket 4.1 22:37:37 41° S 22:39:40 87° E 22:45:07 10° NNE
FALCON 9 DEB 3.1 22:37:20 10° WNW 22:40:45 76° NNE 22:41:03 68° E
Cosmos 1892 2.7 22:42:46 59° SW 22:43:19 71° W 22:47:12 10° N
Exosat Rocket 3.7 22:46:50 36° SSW 22:49:31 82° ESE 22:54:42 10° NNE
EO 1 Del DPAF 3.6 22:46:09 10° NNE 22:49:46 46° E 22:50:06 45° ESE
BREEZE-M R/B 4.4 22:52:11 16° ESE 22:52:11 16° ESE 22:53:39 10° E
Cosmos 1932 4.3 22:45:26 10° NW 22:51:39 75° WSW 22:54:35 33° SSE
GP-B 3.9 22:48:00 10° NNW 22:52:12 41° W 22:53:25 33° WSW
Cosmos 1943 3.1 22:51:58 39° SSW 22:54:09 82° ESE 22:59:50 10° NNE
Cosmos 2098 Rocket 3.9 22:55:16 33° SE 22:56:47 43° E 23:00:40 10° NNE
Cosmos 1633 4.4 22:56:23 19° ESE 22:56:58 20° E 22:59:35 10° NE
Cosmos 1825 2.0 22:58:41 67° SSE 22:59:08 82° E 23:02:55 10° N
Cosmos 2058 3.0 22:59:00 50° SE 22:59:47 61° E 23:03:50 10° NNE
ALOS 2 4.3 23:00:30 19° WSW 23:01:15 20° W 23:04:30 10° NW
Cosmos 1656 Rocket 3.6 22:56:29 10° NNW 23:02:11 75° WSW 23:04:30 37° S
GEOS 3 Rocket 4.5 23:04:52 31° SW 23:05:39 33° WSW 23:10:27 10° NW
Cosmos 540 Rocket 3.4 23:04:04 43° SSW 23:05:47 82° ESE 23:10:55 10° NNE
Cosmos 1953 Rocket 3.8 23:05:33 43° SW 23:06:42 60° WNW 23:11:06 10° N
Cosmos 921 Rocket 3.3 23:05:59 44° SE 23:06:48 51° ESE 23:10:52 10° NNE
USA 307 2.8 23:06:04 55° SSW 23:06:49 70° SE 23:11:03 10° ENE
Cosmos 1603 3.7 23:04:35 34° SW 23:07:08 79° WNW 23:12:49 10° NNE
Cosmos 1437 Rocket 2.5 23:03:48 10° NNW 23:07:40 88° WSW 23:08:13 64° S
NOSS 2-2 (E) 3.2 23:09:37 52° ESE 23:09:37 52° ESE 23:13:13 10° NE
Cosmos-2242 4.3 23:06:08 10° NNW 23:09:49 27° W 23:10:41 25° WSW
Thor Agena Rocket 4.1 23:07:30 10° N 23:12:34 51° WNW 23:14:52 30° SW
Meteor 2-2 Rocket 4.3 23:07:05 10° NNW 23:13:09 84° W 23:15:57 34° S
Cosmos 1869 4.4 23:11:57 10° NNW 23:15:34 31° W 23:16:05 30° WSW
USA 229 DEB 4.4 23:14:16 12° WSW 23:20:02 49° NW 23:26:45 10° NE
USA 229 4.4 23:14:25 13° WSW 23:20:08 49° NW 23:26:52 10° NE
SL-4 R/B 3.2 23:17:46 10° WNW 23:21:24 39° N 23:24:48 10° E
USA 308 2.8 23:21:40 43° SW 23:23:01 88° SE 23:27:17 10° ENE
MOZ.5/SAFIR/RUBIN 5/SL-8 4.3 23:21:22 25° SE 23:23:56 56° ENE 23:28:37 10° N
Cosmos 1076 Rocket 3.9 23:22:51 38° SSE 23:24:07 53° E 23:28:16 10° NNE
NOSS 2-2 (C) 3.1 23:24:03 56° SE 23:24:14 57° SE 23:27:49 10° NE
Cosmos 1092 Rocket 4.3 23:22:08 27° SSE 23:25:21 56° E 23:31:22 10° NNE
Cosmos 1842 Rocket 3.4 23:22:03 10° NNW 23:26:25 79° W 23:27:40 46° S
SL-16 R/B 4.4 23:25:02 10° W 23:29:03 20° NW 23:33:07 10° N
Cosmos 841 Rocket 3.5 23:27:12 36° SW 23:29:17 75° WNW 23:34:27 10° NNE
USA 290 2.2 23:29:39 67° ESE 23:29:44 67° ESE 23:32:56 10° NNE
Cosmos 405 Rocket 3.7 23:30:09 30° W 23:30:53 32° WNW 23:34:15 10° N
ATLAS 5 CENTAUR R/B 1.3 23:32:08 50° SSW 23:33:06 78° SE 23:37:31 10° NE
Helios 1B rocket 4.3 23:30:23 10° NE 23:33:35 22° E 23:35:23 16° SE
Lacrosse 5 rocket 3.1 23:30:50 10° NW 23:34:00 28° NNE 23:37:12 10° E
USA 215 3.9 23:29:03 10° NE 23:35:23 54° NNW 23:41:42 10° W
Cosmos 2369 Rocket 3.3 23:31:04 10° NW 23:35:47 27° WSW 23:37:04 25° SW
USA 305 3.1 23:36:25 28° WSW 23:38:33 71° NNW 23:42:48 10° NE
Cosmos 2221 2.7 23:35:34 10° NNW 23:39:45 53° W 23:40:49 41° SW
SL-16 R/B 3.1 23:34:48 12° SE 23:40:19 55° ENE 23:46:20 10° N
Resurs 1-4 Rocket 2.9 23:36:42 10° NNE 23:41:49 44° E 23:44:38 24° SSE
Cosmos 1937 Rocket 4.3 23:38:14 10° NW 23:43:06 37° WSW 23:44:34 31° SW
ADEOS II 3.9 23:41:09 10° NE 23:45:16 23° E 23:49:01 11° SE
FALCON 9 DEB 3.0 23:44:02 10° WNW 23:47:10 71° NNE 23:50:17 10° ESE
CZ-4C R/B 3.5 23:50:46 18° SE 23:52:54 23° ESE 23:57:11 10° ENE
Lacrosse 4 Rocket 1.5 23:51:57 10° NW 23:55:56 51° WSW 23:56:49 42° SSW
Cosmos 1242 Rocket 3.2 23:52:41 10° NNW 23:56:05 39° W 23:56:31 37° WSW
